Regional Weather Roundup
Issued by NWS

Home | Current Version | Previous Version | Graphics & Text | Print | Product List | Glossary On
Versions: 1 2 3 4 5 6 7 8 9 10 11 12 13 14 15 16 17 18 19 20 21 22 23 24 25 26 27 28 29 30 31 32 33 34 35 36 37 38 39 40 41 42 43 44 45 46 47 48 49 50
178
ASUS44 KLIX 281305
RWRLA
LOUISIANA WEATHER ROUNDUP
NATIONAL WEATHER SERVICE NEW ORLEANS LA
700 AM CST FRI NOV 28 2014

NOTE: "FAIR" INDICATES FEW OR NO CLOUDS BELOW 12,000 FEET WITH NO
      SIGNIFICANT WEATHER AND/OR OBSTRUCTIONS TO VISIBILITY.
      SKY/WX - SKY CONDITION AND SIGNIFICANT WEATHER.
      TMP - AIR TEMPERATURE.    DP   - DEWPOINT TEMPERATURE.
      RH  - RELATIVE HUMIDITY.  PRES - PRESSURE.
      HX  - HEAT INDEX.         WCI  - WIND CHILL INDEX.

*  THESE STATIONS ARE NOT NWS OR FAA STATIONS AND ARE NOT UNDER
   NWS QUALITY CONTROL.

LAZ040-048-061>063-065-066-069-281400-
SOUTHEAST LOUISIANA

CITY           SKY/WX    TMP DP  RH WIND       PRES   REMARKS
N.O. AUDUBON     N/A     43  38  81 MISG        N/A
N.O. INTL ARPT CLEAR     43  34  70 E8        30.43S
N.O. LAKEFRONT CLEAR     45  36  70 E12       30.44R
N.O. DOWNTOWN* FAIR      43  32  65 NE7       30.44R
SLIDELL        CLEAR     31  28  89 CALM      30.44R
BATON ROUGE    CLEAR     34  31  88 E5        30.43S WCI  30
BOOTHVILLE     CLEAR     51  42  71 NE7       30.42R
BELLE CHASSE   PTCLDY    35  32  88 NE3       30.43R
BOGALUSA*        N/A     31  29  91 CALM      30.46S FOG
NEW ROADS*     FAIR      36  31  82 E3        30.43S
GONZALES*      FAIR      34  34 100 CALM      30.43S
HAMMOND*       CLEAR     34  32  93 CALM      30.46R
HOUMA*         CLEAR     37  36  93 NE7       30.42R WCI  32
PORT FOURCHON* SUNNY     50  43  76 NE10      30.44R

$$

LAZ041-044-053-054-281400-
SOUTHWEST LOUISIANA

CITY           SKY/WX    TMP DP  RH WIND       PRES   REMARKS
LAKE CHARLES   CLEAR     38  35  89 E7        30.41S WCI  33
LAFAYETTE      CLEAR     38  34  85 CALM      30.42S
PATTERSON      CLEAR     37  36  93 CALM      30.44
SALT POINT       N/A     44  38  79 CALM      30.41R
NEW IBERIA     CLEAR     39  33  79 CALM      30.43R
CHENAULT AIRPK NOT AVBL

$$

LAZ027-028-281400-
CENTRAL LOUISIANA

CITY           SKY/WX    TMP DP  RH WIND       PRES   REMARKS
FORT POLK      CLEAR     37  33  85 SE5       30.39R WCI  34
ALEXANDRIA INT CLEAR     34  32  92 CALM      30.41S
ALEXANDRIA     CLEAR     30  27  88 SE3       30.43R

$$

LAZ001-002-281400-
NORTHWEST LOUISIANA

CITY           SKY/WX    TMP DP  RH WIND       PRES   REMARKS
SHREVEPORT     CLEAR     35  32  88 SE6       30.36F WCI  30
BARKSDALE AFB  CLEAR     32  31  93 S9        30.37F WCI  25
DTN SHREVEPORT CLEAR     35  31  85 SE7       30.37F WCI  29

$$

LAZ014-016-281400-
NORTHEAST LOUISIANA

CITY           SKY/WX    TMP DP  RH WIND       PRES   REMARKS
MONROE         CLEAR     31  30  96 CALM      30.43R
TALLULAH       CLEAR     31  28  89 SE3       30.43S

$$




USA.gov is the U.S. government's official web portal to all federal, state and local government web resources and services.